Location: Alafon
(8.4500°N, 4.2333°E)
Time: 02:52:36
(UTC+00:00)

Vanguard 2 - Pass Details

Date: 06 August 2021
Orbit: 553 x 2937 km, 32.9° (Epoch: 27 September)

Event Time Altitude Azimuth Distance (km) Brightness Sun altitude
Rises 12:12:41 0° 271° (W) 4,794 11.7 80.0°
Reaches altitude 10° 12:16:13 10° 259° (WSW) 4,156 11.5 79.5°
Maximum altitude 12:25:34 27° 207° (SSW) 3,747 11.4 78.0°
Drops below altitude 10° 12:38:07 10° 157° (SSE) 5,600 11.9 75.5°
Sets 12:44:05 0° 146° (SE) 6,760 12.2 74.3°
